Regional Weather Roundup
Issued by NWS

Home | Current Version | Previous Version | Text Only | Print | Product List | Glossary On
Versions: 1 2 3 4 5 6 7 8 9 10 11 12 13 14 15 16 17 18 19 20 21 22 23 24 25 26 27 28 29 30 31 32 33 34 35 36 37 38 39 40 41 42 43 44 45 46 47 48 49 50
000
ASUS45 KCYS 180910
RWRWY

WYOMING REGIONAL WEATHER ROUNDUP
NATIONAL WEATHER SERVICE CHEYENNE WY
300 AM MDT WED OCT 18 2017

NOTE:  "FAIR" INDICATES FEW OR NO CLOUDS BELOW 12,000 FEET
WITH NO SIGNIFICANT WEATHER AND/OR OBSTRUCTIONS TO VISIBILITY.

WYZ001-181000-
YELLOWSTONE NATIONAL PARK

CITY           SKY/WX    TMP DP  RH WIND       PRES   REMARKS
LK YELLOWSTONE NOT AVBL
W YELLOWSTONE  NOT AVBL

$$
WYZ002>013-054>058-071-098>099-181000-
NORTHERN WYOMING

CITY           SKY/WX    TMP DP  RH WIND       PRES   REMARKS
JACKSON        FAIR      48  15  26 SW7       30.17F
CODY           NOT AVBL
GREYBULL       FAIR      44  27  51 E6        29.92R
WORLAND        FAIR      37  29  72 CALM      29.92R
SHERIDAN       FAIR      52  20  28 NW5       29.88R
BUFFALO        FAIR      59  10  14 VRB3      29.93R
GILLETTE       FAIR      56  20  24 MISG      29.88R
HULETT         FAIR      55  23  28 CALM      29.89R
NEWCASTLE      FAIR      46  23  39 N7        29.90R

$$
WYZ014>020-022>026-101>103-181000-
CENTRAL WYOMING

CITY           SKY/WX    TMP DP  RH WIND       PRES   REMARKS
BIG PINEY      FAIR      31   9  39 E9        30.22R WCI  23
PINEDALE       FAIR      27  16  63 W8        30.23S WCI  18
DUBOIS         FAIR      48   7  18 W23G35    30.11F
LANDER         FAIR      48  16  27 N14       30.02R
RIVERTON       FAIR      41  20  43 W9        30.02S
CASPER         FAIR      49  10  20 SW15      30.00R
DOUGLAS        FAIR      49  15  25 W6        29.94S

$$
WYZ021-027>030-104>119-181000-
SOUTHERN WYOMING

CITY           SKY/WX    TMP DP  RH WIND       PRES   REMARKS
EVANSTON       FAIR      42   7  23 W8        30.26R
KEMMERER       FAIR      36   7  30 SW3       30.25R
FORT BRIDGER   FAIR      46   2  16 SW10      30.27R
ROCK SPRINGS   FAIR      46   2  16 SW12      30.21R
DIXON          FAIR      28  15  58 CALM      30.25R
RAWLINS        FAIR      49   5  16 SW15      30.16S
SARATOGA       FAIR      43  12  28 NE3       30.21R
LARAMIE        FAIR      45  11  25 W9        30.18R
CHEYENNE       FAIR      59  10  14 W18G25    30.06S
TORRINGTON     FAIR      54  20  26 SW5       29.92F
PINE BLUFFS    FAIR      43  27  52 MISG      30.02F

$$



USA.gov is the U.S. government's official web portal to all federal, state and local government web resources and services.